Regional Weather Roundup
Issued by NWS

Home | Current Version | Previous Version | Graphics & Text | Print | Product List | Glossary Off
Versions: 1 2 3 4 5 6 7 8 9 10 11 12 13 14 15 16 17 18 19 20 21 22 23 24 25 26 27 28 29 30 31 32 33 34 35 36 37 38 39 40 41 42 43 44 45 46 47 48 49 50

000
ASUS43 KTOP 021059
RWRKS

WEATHER ROUNDUP FOR KANSAS
NATIONAL WEATHER SERVICE GOODLAND KS
600 AM CDT THU JUL 02 2015

NOTE:  "FAIR" INDICATES FEW OR NO CLOUDS BELOW 12,000 FEET WITH NO
SIGNIFICANT WEATHER AND/OR OBSTRUCTIONS TO VISIBILITY.

KSZ001>006-013>018-027>032-041>047-021200-
NORTHWEST KANSAS

CITY           SKY/WX    TMP DP  RH WIND       PRES   REMARKS
GOODLAND       CLOUDY    66  60  81 NW8       30.05R
HAYS           PTCLDY    72  63  73 N6        29.94F
HILL CITY      MOCLDY    73  66  78 E7        29.95F
RUSSELL        CLOUDY    71  69  93 NE6       29.92S
$$

KSZ061>065-074>080-084>089-021200-
SOUTHWEST KANSAS

CITY           SKY/WX    TMP DP  RH WIND       PRES   REMARKS
DODGE CITY     CLOUDY    69  58  67 NE7       29.95R
ELKHART          N/A     71  58  63 NW10        N/A
GARDEN CITY    CLOUDY    72  59  63 N10       29.97R
GREAT BEND     MOCLDY    72  64  78 CALM      29.93R
LIBERAL        CLOUDY    73  59  60 N14       29.96R
$$

KSZ066>073-081>083-090>101-021200-
SOUTHEAST KANSAS

CITY           SKY/WX    TMP DP  RH WIND       PRES   REMARKS
CHANUTE        PTCLDY    70  68  93 NE8       29.82R
COFFEYVILLE    PTCLDY    77  69  76 SW7       29.79R
HUTCHINSON     CLOUDY    73  70  90 NE6       29.89R
MEDICINE LODGE   N/A     73  65  75 N6        29.87S
NEWTON         CLOUDY    72  66  83 NE7       29.90S
PARSONS        PTCLDY    72  70  93 CALM      29.80R
WICHITA INTL   MOCLDY    76  72  87 N6        29.86R
WICHITA JABRA  MOCLDY    72  70  93 N6        29.87R
WINFIELD       MOCLDY    73  70  90 CALM      29.85R
$$

KSZ007>012-019>026-033>040-048>060-102>105-021200-
NORTHEAST KANSAS

CITY           SKY/WX    TMP DP  RH WIND       PRES   REMARKS
CONCORDIA      CLOUDY    72  69  90 NE5       29.93R
EMPORIA        PTCLDY    71  68  90 NE10      29.86R
LAWRENCE       CLOUDY    73  69  87 NE6       29.87R
MANHATTAN      LGT RAIN  74  70  87 E9        29.88S
OLATHE IND     CLOUDY    72  69  90 NE10      29.88R
OLATHE EXE     CLOUDY    70  68  93 E9        29.86R
SALINA         CLOUDY    77  71  82 NE5       29.89S
TOPEKA BILLARD CLOUDY    73  70  90 N6        29.87R
TOPEKA FORBES  CLOUDY    74  69  85 NE6       29.88R
$$



USA.gov is the U.S. government's official web portal to all federal, state and local government web resources and services.